Flight Track Log - Related Links

Times and Time Zones

All times are in EDT time to prevent confusion due to time zone crossing. See the UPS1301 flight status page for this flight to view local times or setup timezone preferences in your user account.

Time Position Orientation Groundspeed Altitude Reporting Facility
EDT Latitude Longitude Course Direction KTS MPH feet Rate Location/Type
Thu 10:51:02 PM 33.6530 -84.4190 208° Southwest 22 25  Level FlightAware ADS-B
Thu 10:51:16 PM 33.6520 -84.4190 180° South 22 25 224 Level FlightAware ADS-B
Thu 10:51:46 PM 33.6510 -84.4190 180° South 22 25 234 Level FlightAware ADS-B
Thu 10:52:26 PM 33.6510 -84.4180 90° East 20 23 259 Level FlightAware ADS-B
Thu 10:52:49 PM 33.6500 -84.4170 140° Southeast 26 30 303 Level FlightAware ADS-B
Thu 10:53:34 PM 33.6500 -84.4230 270° West 36 41 335 Level FlightAware ADS-B
Thu 10:54:20 PM 33.6490 -84.4330 263° West 32 37 424 Level FlightAware ADS-B
Thu 10:54:30 PM 33.6480 -84.4340 220° Southwest 27 31 581 Level FlightAware ADS-B
Thu 10:55:14 PM 33.6480 -84.4380 270° West 26 30 632 Level FlightAware ADS-B
Thu 10:55:40 PM 33.6450 -84.4390 196° South 26 30 1,029 Level FlightAware ADS-B
Thu 10:55:56 PM 33.6470 -84.4370 40° Northeast 25 29 1,636 Level FlightAware ADS-B
Thu 10:56:24 PM 33.6470 -84.4210 90° East 158 182 1,200 2,441 Climbing FlightAware ADS-B
Thu 10:56:55 PM 33.6470 -84.3910 90° East 178 205 2,400 1,592 Climbing FlightAware ADS-B
Thu 10:57:13 PM 33.6460 -84.3730 94° East 207 238 2,500 1,650 Climbing FlightAware ADS-B
Thu 10:57:35 PM 33.6500 -84.3450 80° East 220 253 3,500 3,000 Climbing FlightAware ADS-B
Thu 10:57:47 PM 33.6530 -84.3310 76° East 218 251 4,200 2,850 Climbing FlightAware ADS-B
Thu 10:58:15 PM 33.6640 -84.3000 67° East 233 268 5,400 2,318 Climbing FlightAware ADS-B
Thu 10:58:31 PM 33.6790 -84.2890 31° Northeast 251 289 5,900 2,308 Climbing FlightAware ADS-B
Thu 10:58:41 PM 33.6910 -84.2870 North 257 296 6,400 3,000 Climbing FlightAware ADS-B
Thu 10:58:59 PM 33.7120 -84.2880 358° North 260 299 7,300 3,000 Climbing FlightAware ADS-B
Thu 10:59:11 PM 33.7270 -84.2900 354° North 263 303 7,900 3,000 Climbing FlightAware ADS-B
Thu 10:59:41 PM 33.7650 -84.2960 353° North 273 314 9,400 2,571 Climbing FlightAware ADS-B
Thu 11:00:21 PM 33.8140 -84.3200 338° Northwest 301 346 10,900 1,814 Climbing FlightAware ADS-B
Thu 11:01:07 PM 33.8780 -84.3570 334° Northwest 350 403 12,000 1,857 Climbing FlightAware ADS-B
Thu 11:01:45 PM 33.9350 -84.3910 334° Northwest 365 420 13,500 2,488 Climbing FlightAware ADS-B
Thu 11:02:29 PM 34.0020 -84.4300 334° Northwest 373 429 15,400 2,442 Climbing FlightAware ADS-B
Thu 11:03:11 PM 34.0700 -84.4680 335° Northwest 383 441 17,000 2,300 Climbing FlightAware ADS-B
Thu 11:03:29 PM 34.1000 -84.4859 334° Northwest 386 444 17,700 2,082 Climbing FlightAware ADS-B
Thu 11:04:00 PM 34.1505 -84.5160 334° Northwest 397 457 18,700 1,967 Climbing FlightAware ADS-B
Thu 11:04:30 PM 34.2019 -84.5456 335° Northwest 405 466 19,700 2,111 Climbing FlightAware ADS-B
Thu 11:04:54 PM 34.2422 -84.5693 334° Northwest 407 468 20,600 2,000 Climbing FlightAware ADS-B
Thu 11:05:09 PM 34.2691 -84.5836 336° Northwest 413 475 21,000 1,333 Climbing FlightAware ADS-B
Thu 11:05:30 PM 34.3078 -84.5993 341° North 424 488 21,400 1,532 Climbing FlightAware ADS-B
Thu 11:05:56 PM 34.3580 -84.6130 347° North 428 493 22,200 1,474 Climbing FlightAware ADS-B
Thu 11:06:27 PM 34.4182 -84.6272 349° North 441 507 22,800 1,574 Climbing FlightAware ADS-B
Thu 11:06:57 PM 34.4793 -84.6424 348° North 443 510 23,800 1,672 Climbing FlightAware ADS-B
Thu 11:07:28 PM 34.5409 -84.6572 349° North 448 516 24,500 1,279 Climbing FlightAware ADS-B
Thu 11:07:58 PM 34.6030 -84.6729 348° North 460 529 25,100 1,300 Climbing FlightAware ADS-B
Thu 11:08:28 PM 34.6670 -84.6890 348° North 467 537 25,800 1,574 Climbing FlightAware ADS-B
Thu 11:08:59 PM 34.7328 -84.7055 348° North 468 539 26,700 1,810 Climbing FlightAware ADS-B
Thu 11:09:31 PM 34.8009 -84.7225 348° North 466 536 27,700 1,754 Climbing FlightAware ADS-B
Thu 11:10:04 PM 34.8692 -84.7395 348° North 464 534 28,600 1,636 Climbing FlightAware ADS-B
Thu 11:10:37 PM 34.9404 -84.7572 348° North 465 535 29,500 1,292 Climbing FlightAware ADS-B
Thu 11:11:09 PM 35.0064 -84.7736 348° North 469 540 30,000 353 Climbing FlightAware ADS-B
Thu 11:12:02 PM 35.1212 -84.8023 348° North 471 542 30,000  Level FlightAware ADS-B
Thu 11:12:34 PM 35.1889 -84.8191 349° North 464 534 30,000  Level FlightAware ADS-B
Thu 11:13:05 PM 35.2524 -84.8352 348° North 454 522 30,000  Level FlightAware ADS-B
Thu 11:13:35 PM 35.3138 -84.8508 348° North 449 517 30,000  Level FlightAware ADS-B
Thu 11:14:05 PM 35.3742 -84.8664 348° North 442 509 30,000  Level FlightAware ADS-B
Thu 11:14:38 PM 35.4403 -84.8834 348° North 441 507 30,000  Level FlightAware ADS-B
Thu 11:15:08 PM 35.5002 -84.8987 348° North 441 507 30,000  Level FlightAware ADS-B
Thu 11:15:38 PM 35.5608 -84.9142 348° North 442 509 30,000  Level FlightAware ADS-B
Thu 11:16:01 PM 35.6061 -84.9259 348° North 442 509 30,000  Level FlightAware ADS-B
Thu 11:16:31 PM 35.6666 -84.9445 346° North 443 510 30,000  Level FlightAware ADS-B
Thu 11:17:02 PM 35.7270 -84.9638 345° North 443 510 30,000  Level FlightAware ADS-B
Thu 11:17:32 PM 35.7876 -84.9815 347° North 447 514 30,000  Level FlightAware ADS-B
Thu 11:18:03 PM 35.8516 -84.9976 348° North 450 518 30,000  Level FlightAware ADS-B
Thu 11:18:33 PM 35.9142 -85.0121 349° North 454 522 30,000  Level FlightAware ADS-B
Thu 11:19:04 PM 35.9771 -85.0266 349° North 456 525 30,000  Level FlightAware ADS-B
Thu 11:19:38 PM 36.0482 -85.0430 349° North 458 527 30,000  Level FlightAware ADS-B
Thu 11:20:09 PM 36.1118 -85.0578 349° North 460 529 30,000  Level FlightAware ADS-B
Thu 11:20:39 PM 36.1752 -85.0726 349° North 462 532 30,000  Level FlightAware ADS-B
Thu 11:21:09 PM 36.2387 -85.0875 349° North 462 532 30,000  Level FlightAware ADS-B
Thu 11:21:41 PM 36.3069 -85.1035 349° North 463 533 30,000  Level FlightAware ADS-B
Thu 11:22:15 PM 36.3781 -85.1203 349° North 463 533 30,000  Level FlightAware ADS-B
Thu 11:22:46 PM 36.4421 -85.1354 349° North 463 533 30,000 -405 Level FlightAware ADS-B
Thu 11:23:29 PM 36.5322 -85.1566 349° North 459 528 29,500 -1,217 Descending FlightAware ADS-B
Thu 11:23:55 PM 36.5889 -85.1634 354° North 462 532 28,600 -2,049 Descending FlightAware ADS-B
Thu 11:24:10 PM 36.6199 -85.1612 North 460 529 28,100 -2,077 Descending FlightAware ADS-B
Thu 11:24:47 PM 36.6973 -85.1471 North 453 521 26,800 -2,029 Descending FlightAware ADS-B
Thu 11:25:18 PM 36.7606 -85.1341 North 448 516 25,800 -1,967 Descending FlightAware ADS-B
Thu 11:25:48 PM 36.8223 -85.1216 North 442 509 24,800 -1,938 Descending FlightAware ADS-B
Thu 11:26:23 PM 36.8919 -85.1077 North 435 501 23,700 -1,913 Descending FlightAware ADS-B
Thu 11:26:57 PM 36.9585 -85.0945 North 425 489 22,600 -1,909 Descending FlightAware ADS-B
Thu 11:27:29 PM 37.0198 -85.0824 North 414 476 21,600 -1,890 Descending FlightAware ADS-B
Thu 11:31:11 PM 37.4130 -85.0030 North 365 420 14,600 -1,878 Descending FlightAware ADS-B
Thu 11:31:51 PM 37.4780 -84.9900 North 353 406 13,400 -1,953 Descending FlightAware ADS-B
Thu 11:32:37 PM 37.5510 -84.9750 North 339 390 11,800 -1,200 Descending FlightAware ADS-B
Thu 11:33:26 PM 37.6120 -84.9630 North 321 369 11,500 -186 Descending FlightAware ADS-B
Thu 11:34:14 PM 37.6720 -84.9530 North 321 369 11,500  Level FlightAware ADS-B
Thu 11:34:50 PM 37.7170 -84.9450 North 321 369 11,500 -1,890 Level FlightAware ADS-B
Thu 11:37:53 PM 37.8200 -85.2840 291° West 269 310 4,600 -1,981 Descending FlightAware ADS-B
Thu 11:38:19 PM 37.8170 -85.3180 264° West 269 310 4,600 -750 Level FlightAware ADS-B
Thu 11:38:49 PM 37.8130 -85.3740 265° West 268 308 3,900 -1,149 Descending FlightAware ADS-B
Thu 11:39:06 PM 37.8110 -85.3950 263° West 262 302 3,700 -300 Descending FlightAware ADS-B
Thu 11:39:49 PM 37.8070 -85.4530 265° West 262 302 3,600 -254 Descending FlightAware ADS-B
Thu 11:41:28 PM 37.8000 -85.5840 266° West 201 231 3,100 -240 Descending FlightAware ADS-B
Thu 11:41:54 PM 37.8250 -85.6030 329° Northwest 196 226 3,100  Level FlightAware ADS-B
Thu 11:42:37 PM 37.8630 -85.6210 339° North 196 226 3,100  Level FlightAware ADS-B
Thu 11:43:05 PM 37.8870 -85.6300 344° North 195 224 3,100  Level FlightAware ADS-B
Thu 11:43:29 PM 37.9070 -85.6370 345° North 195 224 3,100  Level FlightAware ADS-B
Thu 11:43:57 PM 37.9310 -85.6440 347° North 195 224 3,100  Level FlightAware ADS-B
Thu 11:44:27 PM 37.9590 -85.6540 344° North 194 223 3,100  Level FlightAware ADS-B
Thu 11:44:53 PM 37.9820 -85.6610 347° North 194 223 3,100  Level FlightAware ADS-B
Thu 11:45:23 PM 38.0080 -85.6700 345° North 194 223 3,100  Level FlightAware ADS-B
Thu 11:45:52 PM 38.0320 -85.6790 344° North 193 222 3,100 -316 Level FlightAware ADS-B
Thu 11:46:20 PM 38.0560 -85.6870 345° North 177 204 2,800 -750 Descending FlightAware ADS-B
Thu 11:46:48 PM 38.0770 -85.6940 345° North 167 192 2,400 -857 Descending FlightAware ADS-B
Thu 11:47:16 PM 38.0970 -85.7010 345° North 147 169 2,000 -828 Descending FlightAware ADS-B
Thu 11:47:46 PM 38.1150 -85.7070 345° North 131 151 1,600 -750 Descending FlightAware ADS-B
Thu 11:48:12 PM 38.1310 -85.7120 346° North 127 146 1,300 -632 Descending FlightAware ADS-B
Thu 11:48:24 PM 38.1380 -85.7150 341° North 128 147 1,200 -682 Descending FlightAware ADS-B
Thu 11:48:56 PM 38.1570 -85.7210 346° North 125 144 800 -692 Descending FlightAware ADS-B
Thu 11:49:16 PM 38.1670 -85.7250 343° North 128 147 600 -600 Descending FlightAware ADS-B
Thu 11:49:48 PM 38.1790 -85.7290 345° North 33 38 -1,125 Descending FlightAware ADS-B
Thu 11:50:02 PM 38.1810 -85.7300 339° North 19 22  Level FlightAware ADS-B
Thu 11:51:17 PM 38.1760 -85.7290 171° South 17 20  Level FlightAware ADS-B
Thu 11:52:10 PM 38.1760 -85.7340 270° West 28 32  Level FlightAware ADS-B
Thu 11:52:40 PM 38.1780 -85.7390 297° West 31 36  Level FlightAware ADS-B
Thu 11:53:04 PM 38.1790 -85.7430 288° West 15 17  Level FlightAware ADS-B
Thu 11:53:33 PM 38.1770 -85.7430 180° South 23 26  Level FlightAware ADS-B
Thu 11:54:05 PM 38.1730 -85.7420 169° South 28 32  Level FlightAware ADS-B
Thu 11:54:46 PM 38.1690 -85.7400 159° South 29 33  Level FlightAware ADS-B
Thu 11:55:13 PM 38.1660 -85.7370 142° Southeast 31 36  Level FlightAware ADS-B

Login

Don't have an account? Register now (free) for customized features, flight alerts, and more!